SCP
0 0 0 0 0 0 0 0 0 0 0 0 0 0 0 0 0 0 0 0 0 0 0 0 0 0 0 0 0 0 0 0 0 0 0 0 0 0 0 0 0 0 0 0 0
0 0 0 0 0 0 0 0 0 0 0 0 0 0 0 0 0 0 0 0 0 0 0 0 0 0 0 0 0 0 0 0 0 0 0 0 0 0 0 0 0 0 0 0 0
0 0 0 0 0 0 0 0 0 0 0 0 0 0 0 0 0 0 0 0 0 0 0 0 0 0 0 0 0 0 0 0 0 0 0 0 0 0 0 0 0 0 0 0 0
0 0 0 0 0 0 0 0 0 0 0 0 0 0 0 0 0 0 0 0 0 0 0 0 0 0 0 0 0 0 0 0 0 0 0 0 0 0 0 0 0 0 0 0 0
0 0 0 0 0 0 0 0 0 0 0 0 0 0 0 0 0 0 0 0 0 0 0 0 0 0 0 0 0 0 0 0 0 0 0 0 0 0 0 0 0 0 0 0 0
0 0 0 0 0 0 0 0 0 0 0 0 0 0 0 0 0 0 0 0 0 0 0 0 0 0 0 0 0 0 0 0 0 0 0 0 0 0 0 0 0 0 0 0 0
0 0 0 0 0 0 0 0 0 0 0 0 0 0 0 0 0 0 0 0 0 0 0 0 0 0 0 0 0 0 0 0 0 0 0 0 0 0 0 0 0 0 0 0 0
0 0 0 0 0 0 0 0 0 0 0 0 0 0 0 0 0 0 0 0 0 0 0 0 0 0 0 0 0 0 0 0 0 0 0 0 0 0 0 0 0 0 0 0 0
0 0 0 0 0 0 0 0 -0 -0 0 0 0 0 0 0 0 0 0 0 0 0 0 0 0 0 0 0 0 0 0 0 0 0 0 0 0 0 0 0 0 0 0 0 0
0 0 -0 -0 0 0 0 -0 -0 0 0 0 0 0 0 0 0 0 0 0 0 0 0 0 0 0 0 0 0 0 0 0 0 0 0 0 0 0 0 0 0 0 0 0 0
0 0 0 0 0 0 0 0 0 0 0 0 0 0 0 0 0 0 0 0 0 0 0 0 0 0 0 0 0 0 0 0 0 0 0 0 0 0 0 0 0 0 0 0 0
0 0 0 0 0 0 0 0 0 0 0 0 0 0 0 0 0 0 0 0 0 0 0 0 0 0 0 0 0 0 0 0 0 0 0 0 0 0 -0 0 0 0 0 -0 -0
0 0 0 0 0 0 0 0 0 0 0 0 0 0 0 0 0 0 0 0 0 0 0 0 0 0 0 0 0 0 0 0 0 0 0 0 0 0 0 0 0 0 0 0 0
0 0 0 0 0 0 0 0 0 0 0 0 0 0 0 0 0 0 0 0 0 0 0 0 0 0 0 0 0 0 0 0 0 0 0 0 0 0 0 0 0 0 0 0 0
0 0 0 0 0 0 0 0 0 0 0 0 0 0 0 0 0 0 0 0 0 0 0 0 0 0 0 0 0 0 0 0 0 0 0 0 0 0 0 0 0 0 0 0 0
0 0 0 0 0 0 0 0 0 0 0 0 0 0 0 0 0 0 0 0 0 0 0 0 0 0 0 0 0 0 0 0 0 0 0 0 0 0 0 0 0 0 0 0 0
0 0 0 0 0 0 0 0 0 0 0 0 0 0 0 0 0 0 0 0 0 0 0 0 0 0 0 0 0 0 0 0 0 0 0 0 0 0 0 0 0 0 0 0 0
0 0 0 0 0 0 0 0 0 0 0 0 0 0 0 0 0 0 0 0 0 0 0 0 0 0 0 0 0 0 0 0 0 0 0 0 0 0 0 0 0 0 0 0 0
0 0 0 0 0 0 0 0 0 0 0 0 0 0 0 0 0 0 0 0 0 0 0 0 0 0 0 0 0 0 0 0 0 0 0 0 0 0 0 0 0 0 0 0 0
0 0 0 0 0 0 0 0 0 0 0 0 0 0 0 0 0 0 0 0 0 0 0 0 0 0 0 0 0 0 0 0 0 0 0 0 0 0 0 0 0 0 0 0 0
0 0 0 0 0 0 0 0 0 0 0 0 0 0 0 0 0 0 0 0 0 0 0 0 0 0 0 0 0 0 0 0 0 0 0 0 0 0 0 0 0 0 0 0 0
0 0 0 0 0 0 0 0 0 0 0 0 0 0 0 0 0 0 0 0 0 0 0 0 0 0 0 0 0 0 0 0 0 0 0 0 0 0 0 0 0 0 0 0 0
0 0 0 0 0 0 0 0 0 0 0 0 0 0 0 0 0 0 0 0 0 0 0 0 0 0 0 0 0 0 0 0 0 0 0 0 0 0 0 0 0 0 0 0 0
0 0 0 0 0 0 0 0 0 0 0 0 0 0 0 0 0 0 0 0 0 0 0 0 0 0 0 0 0 0 0 0 0 0 0 0 0 0 0 0 0 0 0 0 0
0 0 0 0 0 0 0 0 0 0 0 0 0 0 0 0 0 0 0 0 0 0 0 0 0 0 0 0 0 0 0 0 0 0 0 0 0 0 0 0 0 0 0 0 0
0 0 0 0 0 0 0 0 0 0 0 0 0 0 0 0 0 0 0 0 0 0 0 0 0 0 0 0 0 0 0 0 0 0 0 0 0 0 0 0 0 0 0 0 0
0 0 0 0 0 0 0 0 0 0 0 0 0 0 0 0 0 0 0 0 0 0 0 0 0 0 0 0 0 0 0 0 0 0 0 0 0 0 0 0 0 0 0 0 0
Wind_Speed_500mb
17 18 20 20 19 17 16 15 14 15 15 15 16 16 12 9 12 16 9 19 19 18 14 6 3 4 11 15 12 9 6 6 8 8 6 13 12 7 18 19 19 6 3 3 10
16 18 19 18 17 14 12 11 10 11 13 12 11 9 9 8 3 19 20 21 19 21 12 4 7 12 6 8 9 7 7 15 4 3 6 15 6 18 10 15 26 29 26 24 35
15 17 17 18 17 15 13 11 10 11 11 12 12 8 4 5 2 13 17 17 17 18 14 7 4 8 6 5 3 4 8 3 0 3 12 13 20 9 8 12 21 17 40 47 43
15 17 19 20 19 16 14 14 12 12 13 13 12 9 4 8 3 10 15 17 15 16 12 4 4 4 6 3 6 2 0 1 5 6 12 11 13 15 29 35 30 37 33 27 24
15 16 18 19 20 19 17 15 14 14 15 16 12 8 6 4 3 10 14 13 11 10 11 8 10 5 6 4 8 1 7 13 13 31 24 20 22 19 35 48 38 23 17 25 34
14 15 16 18 18 16 16 15 14 14 16 14 11 6 7 1 3 12 13 11 11 12 15 11 8 10 9 4 3 9 17 31 15 11 9 9 13 15 16 15 19 26 37 43 51
13 14 16 18 18 18 15 13 13 15 15 13 10 6 7 2 4 10 12 6 9 12 11 12 8 3 4 3 6 8 10 12 2 7 6 13 18 16 26 15 31 44 66 67 64
16 15 18 21 22 22 19 16 15 14 15 11 8 3 3 2 4 8 12 7 7 10 10 9 9 9 3 4 8 8 7 11 3 14 2 13 18 17 22 30 52 74 82 67 48
17 18 18 21 23 23 21 20 18 14 11 8 7 5 5 5 4 7 11 7 4 4 7 5 6 6 5 6 8 14 5 7 18 5 11 6 18 29 49 48 58 58 62 51 39
17 19 21 23 23 23 22 21 15 9 7 6 10 5 6 4 8 4 9 4 1 1 6 4 6 6 6 9 3 6 8 9 13 6 7 20 40 39 57 37 51 60 52 42 39
19 17 19 22 25 24 21 14 8 6 9 10 7 8 9 11 7 4 7 3 3 2 4 6 9 2 7 4 5 3 7 13 11 9 11 16 28 47 60 39 42 42 31 35 38
24 23 21 21 20 20 19 12 9 11 16 15 13 11 11 9 5 5 7 4 3 4 3 9 3 8 7 5 4 9 10 12 12 4 9 19 45 47 31 17 21 19 31 32 29
29 26 26 25 20 16 12 9 12 14 8 7 9 5 6 5 6 4 6 3 3 3 5 6 1 12 6 3 6 8 9 4 10 14 4 21 20 12 9 11 23 29 23 22 26
34 32 27 25 18 11 10 10 12 15 8 5 3 1 4 2 5 3 4 1 4 3 3 5 4 9 6 8 9 7 7 3 11 12 3 12 12 15 3 18 14 29 17 21 40
39 34 30 22 19 15 13 12 12 10 9 3 3 3 4 2 4 0 3 3 3 4 8 2 11 7 7 7 9 8 2 6 2 5 9 10 5 16 6 14 19 15 17 33 46
16 40 37 27 19 14 9 10 12 11 12 2 2 2 4 2 2 3 1 4 5 4 1 9 2 7 7 3 3 5 6 8 8 7 5 9 10 11 9 13 8 9 23 51 56
18 29 37 29 11 11 8 4 7 7 5 7 4 2 2 3 3 2 3 1 7 5 4 4 7 3 5 4 5 5 11 9 12 7 11 9 4 25 17 16 11 15 46 47 57
15 25 26 32 28 13 13 8 8 5 11 2 4 6 6 6 4 2 2 6 7 4 3 6 10 11 7 7 10 6 10 9 11 7 12 3 15 13 15 15 23 40 39 37 51
26 34 30 22 26 22 21 4 13 13 3 10 4 4 5 2 2 2 11 8 11 17 14 7 9 4 4 4 7 8 5 6 6 2 6 7 15 22 27 18 12 23 25 55 75
28 40 35 36 29 31 8 7 9 5 6 6 11 11 11 8 4 5 7 8 7 15 8 7 6 2 1 4 9 6 13 8 6 7 13 12 13 21 11 14 16 14 31 64 77
22 16 17 29 36 24 7 15 12 13 9 7 6 4 10 11 12 8 10 5 8 7 11 8 6 4 2 12 15 6 6 6 6 8 8 9 17 17 17 13 17 15 44 65 78
38 5 36 45 6 6 6 14 23 15 17 3 4 6 12 9 11 8 15 11 20 26 15 11 8 7 17 1 2 7 12 13 8 11 8 5 24 8 13 11 7 42 67 82 82
13 11 50 59 9 9 6 8 9 9 10 19 21 16 4 7 7 12 7 5 21 16 16 14 3 4 14 8 4 8 10 9 5 5 19 8 21 6 4 29 64 51 69 84 86
13 6 13 37 25 6 11 10 8 22 9 13 3 6 6 4 9 7 6 4 9 10 9 18 8 13 13 9 7 10 11 19 19 7 20 32 64 63 49 47 51 67 74 81 82
33 13 22 11 22 15 12 15 14 17 18 20 7 25 23 12 7 14 12 3 5 6 5 8 10 5 7 10 9 22 23 25 34 45 20 70 35 57 54 54 57 73 75 70 79
14 16 13 5 5 34 22 22 27 8 18 11 23 8 28 17 29 16 14 11 11 6 11 5 6 5 9 9 7 22 32 40 48 47 44 60 70 55 83 77 50 59 62 65 75
51 38 26 28 13 17 29 45 34 24 33 29 41 18 29 54 45 21 15 9 4 13 19 12 9 5 12 8 16 19 26 40 13 15 23 28 35 16 16 20 39 54 75 66 75
Wind_Direction_500mb
3 1 1 359 354 349 347 340 339 340 341 345 351 347 344 342 0 12 22 11 1 6 356 350 230 208 161 158 152 135 77 207 243 190 268 1 11 345 325 283 329 36 61 113 343
4 359 357 354 356 353 345 334 325 324 325 336 345 347 337 330 324 20 21 10 355 351 350 18 133 135 129 142 155 125 145 217 266 8 322 323 342 312 314 288 288 277 242 263 282
353 357 356 353 352 351 349 336 323 318 322 334 341 342 353 319 308 5 10 7 357 349 347 11 99 97 95 136 49 173 202 232 88 67 350 312 306 271 239 262 246 287 305 306 299
333 348 352 352 350 348 340 333 323 319 322 331 339 333 348 2 115 350 358 356 359 360 349 40 128 75 74 64 8 268 8 131 250 249 316 279 281 268 240 260 284 302 302 308 317
321 333 349 352 349 342 336 330 326 321 321 326 333 340 320 334 53 356 357 358 2 8 39 84 103 105 103 347 342 14 315 299 273 291 280 275 264 273 276 280 281 286 304 299 305
326 333 345 349 346 341 336 329 321 315 316 317 322 337 332 286 6 3 9 9 18 25 37 56 90 106 103 70 70 322 304 297 305 318 325 313 283 334 279 317 267 292 308 300 291
341 339 345 347 342 339 335 328 321 315 309 308 307 294 320 165 332 1 8 6 21 31 52 49 70 107 111 91 353 316 329 317 193 21 349 346 296 228 281 280 288 298 303 299 296
356 349 347 345 343 339 333 325 315 307 302 301 290 281 254 253 338 351 359 20 41 59 58 65 85 91 65 347 28 30 43 352 12 18 347 62 276 276 286 289 299 299 302 304 306
352 348 344 344 340 336 331 323 313 302 295 290 256 254 248 220 321 336 359 15 82 78 56 55 83 61 35 65 22 17 316 312 322 340 354 57 277 267 288 294 291 293 297 299 311
336 343 341 339 337 334 332 326 314 292 279 266 236 266 223 241 305 293 341 344 226 126 132 64 69 77 37 52 222 297 309 274 248 270 9 282 267 280 284 286 284 292 289 294 304
323 330 337 336 337 334 335 341 341 278 270 240 253 275 277 289 273 279 334 240 188 152 69 38 63 173 158 117 120 191 246 248 260 276 318 267 282 288 294 291 278 275 286 297 306
314 321 327 330 334 330 339 9 353 317 307 253 248 254 266 292 292 254 325 210 190 145 106 34 199 177 134 134 175 234 258 273 286 297 322 302 295 280 282 255 233 274 292 298 312
300 308 315 323 327 322 331 341 330 331 284 274 230 236 245 258 269 280 359 131 96 109 64 156 128 133 129 220 244 227 209 251 238 328 312 326 309 316 327 273 263 271 291 300 308
283 292 300 312 317 333 328 330 336 335 51 240 225 280 194 208 274 314 10 48 69 187 134 230 148 167 177 235 166 280 174 300 313 17 295 55 286 295 276 290 263 277 283 310 313
280 265 273 281 293 309 320 323 332 347 354 64 227 178 155 181 319 266 48 35 152 152 104 317 169 188 217 227 184 234 342 293 267 101 39 328 78 268 314 277 272 265 268 303 324
311 275 256 250 261 272 295 308 322 42 255 339 117 296 116 186 243 292 39 74 102 94 57 245 281 194 209 149 234 334 339 58 55 85 352 218 144 261 232 213 243 267 311 314 301
356 295 256 248 231 230 231 288 23 162 358 270 222 143 298 219 278 55 19 319 180 57 295 238 200 184 174 124 39 75 45 338 342 0 230 162 55 249 257 247 241 273 296 310 316
259 282 313 295 265 217 160 49 180 264 229 14 134 115 215 159 256 10 44 279 211 106 118 130 309 183 182 203 161 90 116 151 262 281 282 313 234 246 217 262 268 272 295 299 309
243 246 237 256 262 230 135 152 209 209 130 145 57 131 266 206 184 354 211 216 215 173 175 129 282 89 215 176 132 136 130 128 90 158 349 245 280 284 269 261 221 270 286 306 309
256 228 217 227 226 189 109 232 260 251 105 78 211 164 206 198 134 134 200 196 201 185 136 173 322 33 87 97 48 117 146 70 16 308 291 275 271 238 252 245 277 285 300 306 303
243 209 211 203 183 162 188 207 237 246 175 190 257 254 221 189 185 217 230 249 183 126 108 130 120 278 38 202 175 134 165 114 127 168 218 296 274 215 223 219 255 276 304 305 304
220 177 174 181 164 198 202 189 196 169 173 8 320 246 208 191 198 238 225 230 176 149 163 186 147 232 221 66 101 150 181 153 149 235 238 216 270 189 211 197 269 312 311 311 306
226 181 178 181 198 197 261 291 214 173 168 177 206 199 166 214 257 210 231 305 186 167 160 183 235 352 338 3 40 211 186 179 118 98 218 165 264 201 241 306 312 307 308 306 308
209 170 177 206 236 203 170 202 222 222 225 183 188 99 114 260 175 276 291 320 221 208 167 146 173 190 200 191 135 204 195 204 195 177 262 227 272 279 293 298 306 308 305 305 309
207 229 195 192 227 208 189 179 193 209 204 186 217 213 179 211 219 239 215 295 321 240 120 145 217 195 274 237 221 243 241 222 216 228 236 271 251 278 291 296 299 300 300 308 314
225 199 201 231 177 195 205 215 212 149 159 197 228 198 215 215 204 198 175 188 210 161 163 188 262 92 285 298 276 265 249 244 238 245 253 261 277 268 273 282 289 295 309 315 318
237 245 221 235 193 185 217 232 225 183 217 205 206 204 203 225 224 216 191 166 92 181 181 170 150 93 268 332 321 291 231 229 184 206 218 231 248 267 270 281 285 301 314 318 320
Wind_Speed_850mb
17 18 20 20 19 17 16 15 14 15 15 15 16 16 12 9 12 16 9 19 19 18 14 6 3 4 11 15 12 9 6 6 8 8 6 13 12 7 18 19 19 6 3 3 10
16 18 19 18 17 14 12 11 10 11 13 12 11 9 9 8 3 19 20 21 19 21 12 4 7 12 6 8 9 7 7 15 4 3 6 15 6 18 10 15 26 29 26 24 35
15 17 17 18 17 15 13 11 10 11 11 12 12 8 4 5 2 13 17 17 17 18 14 7 4 8 6 5 3 4 8 3 0 3 12 13 20 9 8 12 21 17 40 47 43
15 17 19 20 19 16 14 14 12 12 13 13 12 9 4 8 3 10 15 17 15 16 12 4 4 4 6 3 6 2 0 1 5 6 12 11 13 15 29 35 30 37 33 27 24
15 16 18 19 20 19 17 15 14 14 15 16 12 8 6 4 3 10 14 13 11 10 11 8 10 5 6 4 8 1 7 13 13 31 24 20 22 19 35 48 38 23 17 25 34
14 15 16 18 18 16 16 15 14 14 16 14 11 6 7 1 3 12 13 11 11 12 15 11 8 10 9 4 3 9 17 31 15 11 9 9 13 15 16 15 19 26 37 43 51
13 14 16 18 18 18 15 13 13 15 15 13 10 6 7 2 4 10 12 6 9 12 11 12 8 3 4 3 6 8 10 12 2 7 6 13 18 16 26 15 31 44 66 67 64
16 15 18 21 22 22 19 16 15 14 15 11 8 3 3 2 4 8 12 7 7 10 10 9 9 9 3 4 8 8 7 11 3 14 2 13 18 17 22 30 52 74 82 67 48
17 18 18 21 23 23 21 20 18 14 11 8 7 5 5 5 4 7 11 7 4 4 7 5 6 6 5 6 8 14 5 7 18 5 11 6 18 29 49 48 58 58 62 51 39
17 19 21 23 23 23 22 21 15 9 7 6 10 5 6 4 8 4 9 4 1 1 6 4 6 6 6 9 3 6 8 9 13 6 7 20 40 39 57 37 51 60 52 42 39
19 17 19 22 25 24 21 14 8 6 9 10 7 8 9 11 7 4 7 3 3 2 4 6 9 2 7 4 5 3 7 13 11 9 11 16 28 47 60 39 42 42 31 35 38
24 23 21 21 20 20 19 12 9 11 16 15 13 11 11 9 5 5 7 4 3 4 3 9 3 8 7 5 4 9 10 12 12 4 9 19 45 47 31 17 21 19 31 32 29
29 26 26 25 20 16 12 9 12 14 8 7 9 5 6 5 6 4 6 3 3 3 5 6 1 12 6 3 6 8 9 4 10 14 4 21 20 12 9 11 23 29 23 22 26
34 32 27 25 18 11 10 10 12 15 8 5 3 1 4 2 5 3 4 1 4 3 3 5 4 9 6 8 9 7 7 3 11 12 3 12 12 15 3 18 14 29 17 21 40
39 34 30 22 19 15 13 12 12 10 9 3 3 3 4 2 4 0 3 3 3 4 8 2 11 7 7 7 9 8 2 6 2 5 9 10 5 16 6 14 19 15 17 33 46
16 40 37 27 19 14 9 10 12 11 12 2 2 2 4 2 2 3 1 4 5 4 1 9 2 7 7 3 3 5 6 8 8 7 5 9 10 11 9 13 8 9 23 51 56
18 29 37 29 11 11 8 4 7 7 5 7 4 2 2 3 3 2 3 1 7 5 4 4 7 3 5 4 5 5 11 9 12 7 11 9 4 25 17 16 11 15 46 47 57
15 25 26 32 28 13 13 8 8 5 11 2 4 6 6 6 4 2 2 6 7 4 3 6 10 11 7 7 10 6 10 9 11 7 12 3 15 13 15 15 23 40 39 37 51
26 34 30 22 26 22 21 4 13 13 3 10 4 4 5 2 2 2 11 8 11 17 14 7 9 4 4 4 7 8 5 6 6 2 6 7 15 22 27 18 12 23 25 55 75
28 40 35 36 29 31 8 7 9 5 6 6 11 11 11 8 4 5 7 8 7 15 8 7 6 2 1 4 9 6 13 8 6 7 13 12 13 21 11 14 16 14 31 64 77
22 16 17 29 36 24 7 15 12 13 9 7 6 4 10 11 12 8 10 5 8 7 11 8 6 4 2 12 15 6 6 6 6 8 8 9 17 17 17 13 17 15 44 65 78
38 5 36 45 6 6 6 14 23 15 17 3 4 6 12 9 11 8 15 11 20 26 15 11 8 7 17 1 2 7 12 13 8 11 8 5 24 8 13 11 7 42 67 82 82
13 11 50 59 9 9 6 8 9 9 10 19 21 16 4 7 7 12 7 5 21 16 16 14 3 4 14 8 4 8 10 9 5 5 19 8 21 6 4 29 64 51 69 84 86
13 6 13 37 25 6 11 10 8 22 9 13 3 6 6 4 9 7 6 4 9 10 9 18 8 13 13 9 7 10 11 19 19 7 20 32 64 63 49 47 51 67 74 81 82
33 13 22 11 22 15 12 15 14 17 18 20 7 25 23 12 7 14 12 3 5 6 5 8 10 5 7 10 9 22 23 25 34 45 20 70 35 57 54 54 57 73 75 70 79
14 16 13 5 5 34 22 22 27 8 18 11 23 8 28 17 29 16 14 11 11 6 11 5 6 5 9 9 7 22 32 40 48 47 44 60 70 55 83 77 50 59 62 65 75
51 38 26 28 13 17 29 45 34 24 33 29 41 18 29 54 45 21 15 9 4 13 19 12 9 5 12 8 16 19 26 40 13 15 23 28 35 16 16 20 39 54 75 66 75
Wind_Direction_850mb
3 1 1 359 354 349 347 340 339 340 341 345 351 347 344 342 0 12 22 11 1 6 356 350 230 208 161 158 152 135 77 207 243 190 268 1 11 345 325 283 329 36 61 113 343
4 359 357 354 356 353 345 334 325 324 325 336 345 347 337 330 324 20 21 10 355 351 350 18 133 135 129 142 155 125 145 217 266 8 322 323 342 312 314 288 288 277 242 263 282
353 357 356 353 352 351 349 336 323 318 322 334 341 342 353 319 308 5 10 7 357 349 347 11 99 97 95 136 49 173 202 232 88 67 350 312 306 271 239 262 246 287 305 306 299
333 348 352 352 350 348 340 333 323 319 322 331 339 333 348 2 115 350 358 356 359 360 349 40 128 75 74 64 8 268 8 131 250 249 316 279 281 268 240 260 284 302 302 308 317
321 333 349 352 349 342 336 330 326 321 321 326 333 340 320 334 53 356 357 358 2 8 39 84 103 105 103 347 342 14 315 299 273 291 280 275 264 273 276 280 281 286 304 299 305
326 333 345 349 346 341 336 329 321 315 316 317 322 337 332 286 6 3 9 9 18 25 37 56 90 106 103 70 70 322 304 297 305 318 325 313 283 334 279 317 267 292 308 300 291
341 339 345 347 342 339 335 328 321 315 309 308 307 294 320 165 332 1 8 6 21 31 52 49 70 107 111 91 353 316 329 317 193 21 349 346 296 228 281 280 288 298 303 299 296
356 349 347 345 343 339 333 325 315 307 302 301 290 281 254 253 338 351 359 20 41 59 58 65 85 91 65 347 28 30 43 352 12 18 347 62 276 276 286 289 299 299 302 304 306
352 348 344 344 340 336 331 323 313 302 295 290 256 254 248 220 321 336 359 15 82 78 56 55 83 61 35 65 22 17 316 312 322 340 354 57 277 267 288 294 291 293 297 299 311
336 343 341 339 337 334 332 326 314 292 279 266 236 266 223 241 305 293 341 344 226 126 132 64 69 77 37 52 222 297 309 274 248 270 9 282 267 280 284 286 284 292 289 294 304
323 330 337 336 337 334 335 341 341 278 270 240 253 275 277 289 273 279 334 240 188 152 69 38 63 173 158 117 120 191 246 248 260 276 318 267 282 288 294 291 278 275 286 297 306
314 321 327 330 334 330 339 9 353 317 307 253 248 254 266 292 292 254 325 210 190 145 106 34 199 177 134 134 175 234 258 273 286 297 322 302 295 280 282 255 233 274 292 298 312
300 308 315 323 327 322 331 341 330 331 284 274 230 236 245 258 269 280 359 131 96 109 64 156 128 133 129 220 244 227 209 251 238 328 312 326 309 316 327 273 263 271 291 300 308
283 292 300 312 317 333 328 330 336 335 51 240 225 280 194 208 274 314 10 48 69 187 134 230 148 167 177 235 166 280 174 300 313 17 295 55 286 295 276 290 263 277 283 310 313
280 265 273 281 293 309 320 323 332 347 354 64 227 178 155 181 319 266 48 35 152 152 104 317 169 188 217 227 184 234 342 293 267 101 39 328 78 268 314 277 272 265 268 303 324
311 275 256 250 261 272 295 308 322 42 255 339 117 296 116 186 243 292 39 74 102 94 57 245 281 194 209 149 234 334 339 58 55 85 352 218 144 261 232 213 243 267 311 314 301
356 295 256 248 231 230 231 288 23 162 358 270 222 143 298 219 278 55 19 319 180 57 295 238 200 184 174 124 39 75 45 338 342 0 230 162 55 249 257 247 241 273 296 310 316
259 282 313 295 265 217 160 49 180 264 229 14 134 115 215 159 256 10 44 279 211 106 118 130 309 183 182 203 161 90 116 151 262 281 282 313 234 246 217 262 268 272 295 299 309
243 246 237 256 262 230 135 152 209 209 130 145 57 131 266 206 184 354 211 216 215 173 175 129 282 89 215 176 132 136 130 128 90 158 349 245 280 284 269 261 221 270 286 306 309
256 228 217 227 226 189 109 232 260 251 105 78 211 164 206 198 134 134 200 196 201 185 136 173 322 33 87 97 48 117 146 70 16 308 291 275 271 238 252 245 277 285 300 306 303
243 209 211 203 183 162 188 207 237 246 175 190 257 254 221 189 185 217 230 249 183 126 108 130 120 278 38 202 175 134 165 114 127 168 218 296 274 215 223 219 255 276 304 305 304
220 177 174 181 164 198 202 189 196 169 173 8 320 246 208 191 198 238 225 230 176 149 163 186 147 232 221 66 101 150 181 153 149 235 238 216 270 189 211 197 269 312 311 311 306
226 181 178 181 198 197 261 291 214 173 168 177 206 199 166 214 257 210 231 305 186 167 160 183 235 352 338 3 40 211 186 179 118 98 218 165 264 201 241 306 312 307 308 306 308
209 170 177 206 236 203 170 202 222 222 225 183 188 99 114 260 175 276 291 320 221 208 167 146 173 190 200 191 135 204 195 204 195 177 262 227 272 279 293 298 306 308 305 305 309
207 229 195 192 227 208 189 179 193 209 204 186 217 213 179 211 219 239 215 295 321 240 120 145 217 195 274 237 221 243 241 222 216 228 236 271 251 278 291 296 299 300 300 308 314
225 199 201 231 177 195 205 215 212 149 159 197 228 198 215 215 204 198 175 188 210 161 163 188 262 92 285 298 276 265 249 244 238 245 253 261 277 268 273 282 289 295 309 315 318
237 245 221 235 193 185 217 232 225 183 217 205 206 204 203 225 224 216 191 166 92 181 181 170 150 93 268 332 321 291 231 229 184 206 218 231 248 267 270 281 285 301 314 318 320